Weather History for Cheyenne, WY

Change the Weather History Date:

Saturday, February 23, 2013

  Actual Average Record
Temperature  
Mean Temperature 30 °F 31 °F  
Max Temperature 39 °F 42 °F 67 °F (2002)
Min Temperature 20 °F 20 °F -13 °F (1894)
Degree Days  
Heating Degree Days 35 34  
Month to date heating degree days 861 827  
Since 1 July heating degree days 4712 4854  
Cooling Degree Days 0 0  
Month to date cooling degree days 0 0  
Year to date cooling degree days 0 0  
Moisture  
Dew Point 15 °F    
Average Humidity 62    
Maximum Humidity 92    
Minimum Humidity 32    
Precipitation  
Precipitation 0.09 in 0.02 in 0.23 in (1947)
Month to date precipitation 0.39 0.36  
Year to date precipitation 0.63 0.69  
Snow  
Snow 1.50 in 0.30 in 4.00 in (1917)
Month to date snowfall 6.2 6.3  
Since 1 July snowfall 35.0 34.9  
Snow Depth T in    
Sea Level Pressure  
Sea Level Pressure 29.73 in    
Wind  
Wind Speed 10 mph (WSW)    
Max Wind Speed 24 mph    
Max Gust Speed 29 mph    
Visibility 6 miles    
Events Fog , Snow    
T = Trace of Precipitation, MM = Missing Value Source: NWS Daily Summary

Daily Weather History Graph

Daily Weather History Graph

Search for Another Location

Airport:

Trip Planner

Search our weather history database for the weather conditions in past years. The results will help you decide how hot, cold, wet, or windy it might be!

Date:

Astronomy

Feb. 23, 2013 Rise Set
Actual Time 6:42 AM MST 5:43 PM MST
Civil Twilight 6:14 AM MST 6:11 PM MST
Nautical Twilight 5:42 AM MST 6:43 PM MST
Astronomical Twilight 5:10 AM MST 7:15 PM MST
Moon 3:55 PM MST (2/23) 5:06 AM MST (2/23)
Length of Visible Light 11h 57m
Length of Day
11h 01m
Waxing Gibbous, 95% of the Moon is Illuminated
Feb 23
Waxing Gibbous
Feb 25
Full
Mar 4
Last Quarter
Mar 11
New
Mar 19
First Quarter

Hourly Weather History & Observations

Time (MST) Temp. Windchill Dew Point Humidity Pressure Visibility Wind Dir Wind Speed Gust Speed Precip Events Conditions
12:53 AM 21.0 °F 10.6 °F 3.0 °F 46% 29.87 in 10.0 mi WSW 9.2 mph 20.7 mph N/A   Clear
1:53 AM 21.9 °F 7.3 °F 5.0 °F 48% 29.85 in 10.0 mi West 18.4 mph - N/A   Clear
2:53 AM 23.0 °F 7.2 °F 5.0 °F 46% 29.81 in 10.0 mi West 23.0 mph - N/A   Clear
3:53 AM 24.1 °F 8.7 °F 6.1 °F 46% 29.80 in 10.0 mi West 23.0 mph 28.8 mph N/A   Clear
4:53 AM 24.8 °F 10.7 °F 6.8 °F 46% 29.68 in 10.0 mi WSW 19.6 mph - N/A   Clear
5:53 AM 23.0 °F 11.1 °F 7.0 °F 50% 29.80 in 10.0 mi West 12.7 mph - N/A   Clear
6:53 AM 23.0 °F 14.7 °F 7.0 °F 50% 29.82 in 10.0 mi WSW 6.9 mph - N/A   Clear
7:53 AM 25.0 °F 19.3 °F 8.1 °F 49% 29.82 in 10.0 mi WSW 4.6 mph - N/A   Clear
8:53 AM 30.0 °F 19.5 °F 5.0 °F 35% 29.80 in 10.0 mi SSW 13.8 mph 24.2 mph N/A   Mostly Cloudy
9:53 AM 34.0 °F 26.0 °F 7.0 °F 32% 29.77 in 10.0 mi SW 10.4 mph - N/A   Clear
10:53 AM 36.0 °F 29.6 °F 8.1 °F 31% 29.73 in 10.0 mi SSW 8.1 mph - N/A   Mostly Cloudy
11:53 AM 36.0 °F 30.3 °F 9.0 °F 33% 29.72 in 10.0 mi WSW 6.9 mph - N/A   Overcast
12:53 PM 36.0 °F 29.0 °F 9.0 °F 33% 29.69 in 10.0 mi SSW 9.2 mph - N/A   Overcast
1:53 PM 37.9 °F 32.1 °F 10.0 °F 32% 29.65 in 10.0 mi South 8.1 mph - N/A   Mostly Cloudy
2:53 PM 37.0 °F - 10.9 °F 34% 29.65 in 10.0 mi Calm Calm - N/A   Partly Cloudy
3:53 PM 35.1 °F 26.9 °F 10.9 °F 37% 29.66 in 10.0 mi South 11.5 mph - N/A   Mostly Cloudy
4:53 PM 34.0 °F 28.8 °F 10.0 °F 37% 29.67 in 10.0 mi SSE 5.8 mph - N/A   Overcast
5:53 PM 32.0 °F 26.4 °F 10.9 °F 42% 29.70 in 10.0 mi ESE 5.8 mph - N/A   Overcast
6:53 PM 30.9 °F 27.5 °F 16.0 °F 54% 29.73 in 10.0 mi SSW 3.5 mph - N/A   Overcast
7:53 PM 30.0 °F 22.4 °F 18.0 °F 61% 29.75 in 8.0 mi North 8.1 mph - 0.00 in   Overcast
8:53 PM 28.0 °F 20.0 °F 23.0 °F 81% 29.75 in 5.0 mi NNW 8.1 mph - 0.00 in Snow Light Snow
9:04 PM 28.4 °F 23.3 °F 24.8 °F 86% 29.68 in 2.5 mi NW 4.6 mph - 0.00 in Snow Light Snow
9:17 PM 28.4 °F 21.2 °F 24.8 °F 86% 29.69 in 1.5 mi West 6.9 mph - 0.01 in Snow Light Snow
9:34 PM 26.6 °F 20.0 °F 24.8 °F 93% 29.70 in 0.8 mi West 5.8 mph - 0.01 in Snow Light Snow
9:53 PM 26.1 °F 20.5 °F 24.1 °F 92% 29.77 in 0.8 mi WSW 4.6 mph - 0.02 in Snow Light Snow
10:07 PM 26.6 °F 22.6 °F 24.8 °F 93% 29.70 in 1.0 mi WSW 3.5 mph - 0.01 in Snow Light Snow
10:15 PM 26.6 °F - 24.8 °F 93% 29.69 in 0.8 mi Calm Calm - 0.02 in Snow Light Snow
10:24 PM 26.6 °F - 24.8 °F 93% 29.69 in 0.5 mi Calm Calm - 0.03 in Fog , Snow Snow
10:32 PM 26.6 °F - 24.8 °F 93% 29.69 in 0.8 mi Calm Calm - 0.04 in Snow Light Snow
10:40 PM 26.6 °F - 24.8 °F 93% 29.69 in 1.0 mi Calm Calm - 0.04 in Snow Light Snow
10:53 PM 27.0 °F - 25.0 °F 92% 29.73 in 1.2 mi Calm Calm - 0.05 in Snow Light Snow
11:05 PM 26.6 °F 22.6 °F 24.8 °F 93% 29.69 in 1.5 mi East 3.5 mph - 0.00 in Snow Light Snow
11:15 PM 26.6 °F - 24.8 °F 93% 29.69 in 1.5 mi Calm Calm - 0.00 in Snow Light Snow
11:48 PM 26.6 °F 20.0 °F 24.8 °F 93% 29.68 in 2.0 mi North 5.8 mph - 0.01 in Snow Light Snow
11:53 PM 26.1 °F 18.4 °F 23.0 °F 88% 29.74 in 2.5 mi North 6.9 mph - 0.02 in Snow Light Snow